Location: Austin
(30.3000°N, 97.7500°W)
Time: 00:40:39
(UTC-05:00)

Cosmos 1975 Rocket - Pass Details

Date: 06 May 2026
Orbit: 597 x 626 km, 82.5° (Epoch: 13 May)

Event Time Altitude Azimuth Distance (km) Brightness Sun altitude
Rises 20:36:46 0° 8° (N) 2,868 6.7 -5.7°
Reaches altitude 10° 20:39:16 10° 20° (NNE) 1,955 5.7 -6.2°
Maximum altitude 20:42:58 27° 79° (E) 1,156 4.0 -7.0°
Drops below altitude 10° 20:46:38 10° 138° (SE) 1,933 5.0 -7.7°
Enters shadow 20:47:28 - 144° (SE) 2,229 5.4 -7.8°
